Location: Marsån
(66.4167°N, 22.2833°E)
Time: 10:48:20
(UTC+00:00)

Meteor 1-27 Rocket - Pass Details

Date: 24 February 2024
Orbit: 830 x 909 km, 81.3° (Epoch: 15 April)

Event Time Altitude Azimuth Distance (km) Brightness Sun altitude
Rises 18:46:49 0° 340° (NNW) 3,551 7.6 -20.6°
Reaches altitude 10° 18:49:20 10° 337° (NNW) 2,610 6.9 -20.8°
Maximum altitude 18:55:08 56° 261° (W) 1,078 4.4 -21.3°
Drops below altitude 10° 19:00:54 10° 185° (S) 2,588 6.0 -21.8°
Enters shadow 19:00:57 10° 185° (S) 2,608 6.0 -21.8°
